STARLINK-4586, 53636

Orbit data source: Space-Track

STARLINK-4586, 53636 is a payload satellite owned by SpaceX/Seattle (US) in LEO that was launched on Sun, 28 Aug 2022 UTC via an FALCON 9 launch vehicle from the Air Force Eastern Test Range (AFETR). Payload-class satellites include a variety of spacecraft equipped with specific instruments for various scientific and technological missions. These include communications satellites like Starlink; space stations such as the ISS; scientific satellites like the Hubble; Earth observation satellites from companies like Planet Labs, Umbra, and HawkEye 360; GPS; miniature CubeSats for education and research; and military/defense satellites.

Loading next visibility...
Identifier
53636, 2022-104BA
Orbit
LEO
Country
Flag of USUS
Related business
Manufacturer
SpaceX/Seattle
Mission
Operational Commercial Communications
Bus & Motor
STARLINK, Unknown motor
Mass
300 kg wet, ~290 kg dry
Launch date (UTC)
2022-08-28 (4 years ago)
Launch vehicle
FALCON 9
Launch site
Air Force Eastern Test Range (AFETR)
Object type
Payload
Rocket body
Debris
Shape & HBR
Box + 1 Pan, 10.1 m
Radar Cross Section
13.562 m², Large (>1 m²)

Expand to show TLE details & history
Last TLE update: 3 days ago

TLE from 3 days ago
0 STARLINK-4586
1 53636U 22104BA  26170.60617376  .00002132  00000-0  15204-3 0  9997
2 53636  53.1624 126.3184 0001686  87.4260 272.6924 15.08825493211617
Epoch: 2026-06-19T14:32Z
TLE epoch observation values (Epoch: 2026-06-19T14:32:53.412Z)
Latitude
-0.00008°
Longitude
0.26306°
Altitude
540.625 km
Speed
7.593 km/s
True Right ascension
08h 25m 16s
True Declination
0° 00' 00"
Sunlit
Object was in daylight at epoch
Visualization orbit readout
Latitude
Unknown
Longitude
Unknown
Altitude
Unknown
Speed
Unknown
Apparent Right ascension
Unknown
Apparent Declination
Unknown
Sunlit
N/A
Visualization observer readout
Local Sidereal Time
21:39:29
Azimuth
Unknown
Elevation
Unknown
Doppler factor
Unknown
Orbital elements
Apogee altitude
541.208 km
Perigee altitude
538.875 km
Semi-major axis
6,918.178 km
Eccentricity
0.00017
Inclination
53.1624°
RAAN
126.3184°
Arg. of periapsis
87.426°
True anomaly
272.6731°
Mean anomaly
272.6924°
Eccentric anomaly
272.68275°
Mean motion
3.77186 °/min
Orbital period
95.44 mins
BSTAR
0.00015204
Loading maneuver chart data...
Computing Atmospheric mass density...
Loading historical data...
Loading historical data...
Loading historical data...
Loading historical data...
Loading historical data...
Loading historical data...
Loading historical data...

Documentation

Showing up to 5 results
|